{"data":{"norad_id":45149,"epoch":"2026-05-25T03:27:16.060032Z","epoch_age_seconds":72647,"freshness":"FRESH","line1":"1 45149U 20008U   26145.14393588  .00000201  00000+0  53975-3 0  9996","line2":"2 45149  87.8857  40.8529 0002389  76.1247 284.0146 13.10375726305160","mean_motion":13.10375726,"eccentricity":0.0002389,"inclination_deg":87.8857,"raan_deg":40.8529,"arg_perigee_deg":76.1247,"mean_anomaly_deg":284.0146,"bstar":0.00053975,"rev_number":30516,"period_min":109.89214554483,"perigee_km":1219.8903006514,"apogee_km":1223.5215055905,"semimajor_km":7599.842903121,"source":"CELESTRAK","updated_at":"2026-05-25T13:38:22.336555Z"}}